When you browse on this site, cookies collect data to enhance your experience and personalize the content and advertising you see.
Visit our Privacy Policy to learn more. By continuing to use the site, you agree to this use of cookies and data.
  • In Austria
  • List of Countries
  • For 7 days
  • Water Temperature
  • Satellite Maps
  • Weather Map
  • News
  • Weather Widgets
  • user-avatar
    Login

    Hourly Weather Trumbull

    Today, 17 February, Sunday

    Time Temperature Precipitation Wind Pressure Humidity
    00:00 -5°C° 0 mm 3 mps 757 mmHg 68%
    01:00 -5°C° 0 mm 3 mps 757 mmHg 67%
    02:00 -6°C° 0 mm 3 mps 757 mmHg 67%
    03:00 -6°C° 0 mm 3 mps 757 mmHg 66%
    04:00 -6°C° 0 mm 3 mps 757 mmHg 66%
    05:00 -6°C° 0 mm 3 mps 758 mmHg 65%
    06:00 -6°C° 0 mm 3 mps 758 mmHg 65%
    07:00 -5°C° 0 mm 2 mps 758 mmHg 64%
    08:00 -4°C° 0 mm 2 mps 759 mmHg 57%
    09:00 -2°C° 0 mm 2 mps 759 mmHg 50%
    10:00 +1°C° 0 mm 1 mps 759 mmHg 43%
    11:00 +2°C° 0 mm 1 mps 759 mmHg 40%
    12:00 +3°C° 0 mm 1 mps 759 mmHg 38%
    13:00 +5°C° 0 mm 1 mps 758 mmHg 35%
    14:00 +4°C° 0 mm 1 mps 758 mmHg 36%
    15:00 +4°C° 0 mm 1 mps 758 mmHg 37%
    16:00 +3°C° 0 mm 2 mps 757 mmHg 39%
    17:00 +2°C° 0 mm 2 mps 757 mmHg 44%
    18:00 +1°C° 0 mm 2 mps 757 mmHg 49%
    19:00 -1°C° 0 mm 2 mps 757 mmHg 54%
    20:00 -1°C° 0.3 mm 2 mps 757 mmHg 64%
    21:00 -2°C° 0.3 mm 3 mps 757 mmHg 74%
    22:00 -2°C° 0.3 mm 3 mps 756 mmHg 84%
    23:00 -2°C° 0.8 mm 3 mps 756 mmHg 87%

    Tomorrow, 18 February, Monday

    Time Temperature Precipitation Wind Pressure Humidity
    00:00 -2°C° 0.8 mm 3 mps 756 mmHg 90%
    01:00 -1°C° 0.8 mm 3 mps 755 mmHg 92%
    02:00 -1°C° 0.9 mm 3 mps 754 mmHg 93%
    03:00 -1°C° 0.9 mm 3 mps 754 mmHg 93%
    04:00 -1°C° 0.9 mm 3 mps 753 mmHg 94%
    05:00 -1°C° 0.9 mm 3 mps 752 mmHg 94%
    06:00 -2°C° 0.9 mm 4 mps 752 mmHg 94%
    07:00 -2°C° 0.9 mm 4 mps 751 mmHg 94%
    08:00 -1°C° 0.3 mm 3 mps 751 mmHg 93%
    09:00 -1°C° 0.3 mm 3 mps 751 mmHg 93%
    10:00 0°C° 0.3 mm 3 mps 751 mmHg 93%
    11:00 +1°C° 0.1 mm 2 mps 751 mmHg 92%
    12:00 +1°C° 0.1 mm 2 mps 751 mmHg 92%
    13:00 +3°C° 0.1 mm 1 mps 751 mmHg 92%
    14:00 +3°C° 0.1 mm 1 mps 752 mmHg 92%
    15:00 +3°C° 0.1 mm 1 mps 752 mmHg 92%
    16:00 +3°C° 0.1 mm 1 mps 753 mmHg 92%
    17:00 +1°C° 0.1 mm 2 mps 754 mmHg 87%
    18:00 -1°C° 0.1 mm 3 mps 756 mmHg 82%
    19:00 -2°C° 0.1 mm 5 mps 757 mmHg 77%
    20:00 -4°C° 0 mm 5 mps 758 mmHg 78%
    21:00 -5°C° 0 mm 5 mps 759 mmHg 79%
    22:00 -6°C° 0 mm 5 mps 760 mmHg 80%
    23:00 -7°C° 0 mm 5 mps 761 mmHg 79%

    Day after tomorrow, 19 February, Tuesday

    Time Temperature Precipitation Wind Pressure Humidity
    00:00 -8°C° 0 mm 5 mps 762 mmHg 78%
    01:00 -8°C° 0 mm 5 mps 763 mmHg 77%
    02:00 -10°C° 0 mm 5 mps 763 mmHg 73%
    03:00 -11°C° 0 mm 5 mps 764 mmHg 69%
    04:00 -11°C° 0 mm 5 mps 764 mmHg 65%
    05:00 -10°C° 0 mm 4 mps 765 mmHg 65%
    06:00 -10°C° 0 mm 4 mps 766 mmHg 65%
    07:00 -11°C° 0 mm 4 mps 767 mmHg 65%
    08:00 -10°C° 0 mm 4 mps 767 mmHg 62%
    09:00 -9°C° 0 mm 4 mps 768 mmHg 59%
    10:00 -8°C° 0 mm 4 mps 768 mmHg 56%
    11:00 -7°C° 0 mm 4 mps 768 mmHg 54%
    12:00 -5°C° 0 mm 3 mps 768 mmHg 53%
    13:00 -4°C° 0 mm 3 mps 768 mmHg 51%
    14:00 -2°C° 0 mm 3 mps 768 mmHg 51%
    15:00 -2°C° 0 mm 3 mps 768 mmHg 51%
    16:00 -2°C° 0 mm 3 mps 768 mmHg 52%
    17:00 -4°C° 0 mm 3 mps 768 mmHg 56%
    18:00 -5°C° 0 mm 3 mps 769 mmHg 61%
    19:00 -6°C° 0 mm 3 mps 769 mmHg 66%
    20:00 -6°C° 0 mm 3 mps 769 mmHg 67%
    21:00 -6°C° 0 mm 2 mps 770 mmHg 68%
    22:00 -6°C° 0 mm 2 mps 770 mmHg 69%
    23:00 -7°C° 0 mm 2 mps 770 mmHg 68%

    20 February, Wednesday

    Time Temperature Precipitation Wind Pressure Humidity
    00:00 -7°C° 0 mm 2 mps 770 mmHg 67%
    01:00 -7°C° 0 mm 2 mps 770 mmHg 67%
    02:00 -7°C° 0 mm 2 mps 770 mmHg 68%
    03:00 -8°C° 0 mm 2 mps 770 mmHg 69%
    04:00 -8°C° 0 mm 2 mps 770 mmHg 70%
    05:00 -8°C° 0 mm 2 mps 770 mmHg 70%
    06:00 -8°C° 0 mm 2 mps 770 mmHg 70%
    07:00 -8°C° 0 mm 2 mps 770 mmHg 71%
    08:00 -7°C° 0 mm 2 mps 770 mmHg 67%
    09:00 -4°C° 0 mm 1 mps 769 mmHg 64%
    10:00 -3°C° 0 mm 1 mps 769 mmHg 60%
    11:00 -5°C° 0 mm 2 mps 769 mmHg 61%
    12:00 -4°C° 0 mm 2 mps 768 mmHg 63%
    13:00 -4°C° 0 mm 2 mps 767 mmHg 64%
    14:00 -5°C° 0.2 mm 3 mps 767 mmHg 68%
    15:00 -5°C° 0.2 mm 3 mps 766 mmHg 71%
    16:00 -5°C° 0.2 mm 3 mps 765 mmHg 75%
    17:00 -4°C° 0.2 mm 4 mps 765 mmHg 78%
    18:00 -4°C° 0.2 mm 4 mps 764 mmHg 82%
    19:00 -4°C° 0.2 mm 5 mps 764 mmHg 85%
    20:00 -4°C° 0.2 mm 5 mps 762 mmHg 87%
    21:00 -2°C° 0.2 mm 5 mps 761 mmHg 89%
    22:00 -1°C° 0.2 mm 5 mps 760 mmHg 92%
    23:00 -1°C° 0.2 mm 4 mps 759 mmHg 93%

    21 February, Thursday

    Time Temperature Precipitation Wind Pressure Humidity
    00:00 0°C° 0.2 mm 4 mps 758 mmHg 95%
    01:00 +1°C° 0.2 mm 3 mps 757 mmHg 96%
    02:00 +3°C° 0.4 mm 2 mps 756 mmHg 97%
    03:00 +4°C° 0.4 mm 1 mps 755 mmHg 97%
    04:00 +3°C° 0.4 mm 0 mps 754 mmHg 98%
    05:00 +3°C° 0 mm 1 mps 754 mmHg 98%
    06:00 +3°C° 0 mm 1 mps 753 mmHg 97%
    07:00 +2°C° 0 mm 2 mps 753 mmHg 97%
    08:00 +3°C° 0 mm 3 mps 754 mmHg 91%
    09:00 +4°C° 0 mm 4 mps 754 mmHg 86%
    10:00 +6°C° 0 mm 4 mps 755 mmHg 80%
    11:00 +6°C° 0 mm 5 mps 755 mmHg 76%
    12:00 +6°C° 0 mm 5 mps 755 mmHg 71%
    13:00 +5°C° 0 mm 6 mps 756 mmHg 67%
    14:00 +5°C° 0 mm 6 mps 756 mmHg 67%
    15:00 +5°C° 0 mm 5 mps 757 mmHg 67%
    16:00 +3°C° 0 mm 5 mps 757 mmHg 68%
    17:00 +2°C° 0 mm 5 mps 758 mmHg 71%
    18:00 0°C° 0 mm 4 mps 759 mmHg 74%
    19:00 -1°C° 0 mm 4 mps 760 mmHg 77%
    20:00 -2°C° 0 mm 4 mps 761 mmHg 76%
    21:00 -2°C° 0 mm 4 mps 762 mmHg 76%
    22:00 -2°C° 0 mm 4 mps 763 mmHg 75%
    23:00 -2°C° 0 mm 3 mps 763 mmHg 76%

    22 February, Friday

    Time Temperature Precipitation Wind Pressure Humidity
    00:00 -2°C° 0 mm 3 mps 763 mmHg 76%
    01:00 -2°C° 0 mm 2 mps 763 mmHg 77%
    02:00 -2°C° 0 mm 2 mps 763 mmHg 77%
    03:00 -2°C° 0 mm 2 mps 764 mmHg 77%
    04:00 -2°C° 0 mm 2 mps 764 mmHg 78%
    05:00 -2°C° 0 mm 2 mps 764 mmHg 77%
    06:00 0°C° 0 mm 1 mps 765 mmHg 76%
    07:00 0°C° 0 mm 1 mps 765 mmHg 75%
    08:00 +1°C° 0 mm 1 mps 766 mmHg 70%
    09:00 +2°C° 0 mm 1 mps 766 mmHg 65%
    10:00 +3°C° 0 mm 1 mps 766 mmHg 60%
    11:00 +4°C° 0 mm 1 mps 765 mmHg 58%
    12:00 +5°C° 0 mm 1 mps 765 mmHg 55%
    13:00 +6°C° 0 mm 1 mps 765 mmHg 53%
    14:00 +6°C° 0 mm 1 mps 765 mmHg 54%
    15:00 +6°C° 0 mm 1 mps 764 mmHg 56%
    16:00 +6°C° 0 mm 1 mps 764 mmHg 58%
    17:00 +5°C° 0 mm 1 mps 764 mmHg 62%
    18:00 +3°C° 0 mm 1 mps 765 mmHg 66%
    19:00 +2°C° 0 mm 1 mps 765 mmHg 70%
    20:00 +2°C° 0 mm 1 mps 765 mmHg 72%
    21:00 +2°C° 0 mm 1 mps 765 mmHg 73%
    22:00 +1°C° 0 mm 1 mps 765 mmHg 75%
    23:00 +1°C° 0 mm 1 mps 765 mmHg 77%
    Show more